sat.trackr.live / text

‹ back to catalog

STARLINK-4041

NORAD 52695 · 2022-053AR

PAYLOAD ACTIVE UNKNOWN

§ Identity

Operator
Country
US
Launch date
2022-05-18
Launch site
AFETR
Launch vehicle
Mass (kg)
RCS (m²)

Purposes: comms

External: N2YO · Heavens-Above · Gunter

§ Orbital elements

Epoch: 2026-05-24T19:11:30.854688Z

Period
95.44 min
Inclination
53.2148°
Eccentricity
0.0001323
Mean motion
15.08840066 rev/d
Perigee alt
538.8 km
Apogee alt
540.7 km
Semi-major
6,917.9 km
B*
1.6190e-5
RAAN
167.2441°
Arg perigee
86.2392°
Mean anomaly
273.8751°
Rev number
22,258

§ Raw data

STARLINK-40411 52695U 22053AR  26144.79966267 -.00000030  00000+0  16190-4 0  99922 52695  53.2148 167.2441 0001323  86.2392 273.8751 15.08840066222586

JSON: /api/v1/satellites/52695 · /tle

For live sub-satellite position, see the globe view (requires WebGL).

§ Visibility from observer

Set your observer location to see the next 7 days of passes ≥ 10°. The values pass through the URL so the page stays shareable.

No JS? Fill the form by hand. The geolocation button needs JavaScript.